FW1404 Weather Reports


Display with metric or nautical units.
time (UTC)temp
F
wind
direction
speed
MPH
gust
MPH
rain 1hr
in
rain 24hr
in
rain mn
in
humidity
%
barometer
mb
20260508080858 47 60 1.0 4.0 0.00 0.09 0.02 89 1018.6
20260508080358 47 60 2.0 4.0 0.00 0.09 0.02 89 1018.6
20260508075856 47 60 1.0 3.0 0.00 0.09 0.02 89 1018.6
20260508075357 47 60 0.0 4.0 0.00 0.09 0.02 89 1018.5
20260508074857 47 60 2.0 4.0 0.00 0.09 0.02 89 1018.5
20260508074356 47 60 3.0 5.0 0.00 0.10 0.02 90 1018.4
20260508073857 47 60 2.0 5.0 0.00 0.10 0.02 90 1018.5
20260508073357 47 51 2.0 5.0 0.00 0.10 0.02 90 1018.5
20260508072857 47 29 2.0 5.0 0.00 0.10 0.02 90 1018.4
20260508072736 47 56 4.0 5.0 0.00 0.11 0.02 90 1018.2
20260508072419 47 27 4.0 5.0 0.00 0.10 0.02 90 1018.3
20260508071356 47 34 3.0 5.0 0.00 0.11 0.02 90 1018.3
20260508070857 47 70 3.0 5.0 0.00 0.11 0.02 90 1018.2
20260508070356 46 53 2.0 5.0 0.00 0.12 0.02 90 1018.3
20260508065857 46 36 4.0 5.0 0.00 0.12 0.02 90 1018.2
20260508065355 46 22 4.0 6.0 0.00 0.12 0.02 90 1018.2
20260508064856 46 44 4.0 6.0 0.00 0.12 0.02 91 1018.1
20260508064644 46 50 4.0 6.0 0.00 0.12 0.02 91 1018.1
20260508063857 46 57 3.0 6.0 0.00 0.12 0.02 91 1018.1
20260508063355 46 37 3.0 6.0 0.00 0.13 0.02 91 1017.9
20260508062856 46 41 3.0 6.0 0.00 0.13 0.02 91 1017.9
20260508062355 46 37 4.0 9.0 0.00 0.13 0.02 90 1017.8
20260508061855 46 53 5.0 9.0 0.00 0.13 0.02 91 1017.8
20260508061355 46 63 2.0 5.0 0.00 0.13 0.02 91 1017.8
20260508061221 46 33 2.0 6.0 0.00 0.13 0.02 91 1017.7
20260508061217 46 36 2.0 6.0 0.00 0.13 0.02 91 1017.7
20260508055855 45 34 3.0 6.0 0.00 0.13 0.02 91 1017.7
20260508055355 46 36 5.0 6.0 0.00 0.13 0.02 91 1017.7
20260508054854 46 22 4.0 6.0 0.00 0.13 0.02 91 1017.7
20260508054638 46 46 3.0 6.0 0.00 0.13 0.02 91 1017.7
20260508054142 46 30 3.0 6.0 0.00 0.13 0.02 91 1017.6
20260508053355 46 27 3.0 6.0 0.00 0.13 0.02 91 1017.6
20260508052857 46 36 2.0 5.0 0.00 0.13 0.02 91 1017.6
20260508052358 46 49 2.0 4.0 0.00 0.13 0.02 91 1017.6
20260508051857 46 54 2.0 5.0 0.00 0.13 0.02 91 1017.6
20260508051357 46 34 4.0 5.0 0.00 0.13 0.02 91 1017.5
20260508050857 46 39 3.0 4.0 0.00 0.13 0.02 91 1017.5
20260508050353 45 40 3.0 5.0 0.00 0.13 0.02 91 1017.6
20260508045853 45 65 4.0 5.0 0.00 0.13 0.02 91 1017.5
20260508045355 45 51 3.0 4.0 0.00 0.13 0.02 91 1017.5
20260508044855 45 51 2.0 4.0 0.00 0.13 0.02 91 1017.5
20260508044353 45 51 2.0 4.0 0.00 0.13 0.02 91 1017.2
20260508043853 45 39 1.0 5.0 0.00 0.13 0.02 91 1017.4
20260508043353 45 30 2.0 5.0 0.00 0.13 0.02 91 1017.2
20260508042853 45 33 1.0 4.0 0.00 0.13 0.02 91 1017.1
20260508042353 45 29 2.0 5.0 0.00 0.13 0.02 91 1017.0
20260508041853 45 9 3.0 6.0 0.00 0.13 0.02 91 1017.0
20260508041645 45 13 4.0 6.0 0.00 0.13 0.02 91 1017.0
20260508040852 45 36 5.0 6.0 0.00 0.13 0.02 91 1017.0
20260508040352 46 60 3.0 5.0 0.00 0.13 0.02 91 1017.0
20260508035851 45 39 2.0 5.0 0.00 0.13 0.02 91 1017.1
20260508035352 45 34 2.0 4.0 0.00 0.13 0.02 91 1016.9
20260508035141 45 34 2.0 4.0 0.00 0.13 0.02 91 1016.9
20260508034354 45 32 3.0 3.0 0.00 0.13 0.02 91 1016.9
20260508033853 45 32 2.0 3.0 0.00 0.13 0.02 91 1016.9
20260508033352 45 33 2.0 4.0 0.00 0.13 0.02 91 1016.9
20260508032853 45 33 3.0 4.0 0.00 0.13 0.02 91 1016.9
20260508032646 45 29 3.0 4.0 0.00 0.13 0.02 91 1016.8
20260508031851 45 39 1.0 4.0 0.00 0.14 0.02 91 1016.7
20260508031351 45 39 2.0 4.0 0.00 0.14 0.02 91 1016.7
20260508030852 45 39 2.0 3.0 0.00 0.16 0.02 91 1016.8
20260508030442 45 39 1.0 3.0 0.00 0.20 0.02 91 1016.8
20260508030425 45 39 1.0 3.0 0.00 0.18 0.02 91 1016.8
20260508025350 45 39 1.0 3.0 0.00 0.21 0.02 91 1016.8
20260508024850 45 39 2.0 3.0 0.00 0.22 0.02 91 1016.8
20260508024351 45 39 1.0 2.0 0.00 0.23 0.02 91 1016.7
20260508023946 45 39 0.0 3.0 0.00 0.26 0.02 91 1016.6
20260508023925 45 39 0.0 2.0 0.00 0.24 0.02 91 1016.5
20260508023138 45 39 2.0 3.0 0.00 0.28 0.02 91 1016.7
20260508022352 45 37 2.0 4.0 0.00 0.29 0.02 91 1016.7
20260508021850 45 37 2.0 4.0 0.00 0.31 0.02 91 1016.7
20260508021350 45 37 2.0 3.0 0.00 0.31 0.02 91 1016.7
20260508020850 45 37 1.0 3.0 0.00 0.33 0.02 91 1016.6
20260508020350 45 37 2.0 3.0 0.00 0.34 0.02 91 1016.7
20260508015851 45 37 0.0 4.0 0.00 0.35 0.02 90 1016.7
20260508015351 45 47 0.0 4.0 0.00 0.36 0.02 90 1016.6
20260508015136 45 46 2.0 3.0 0.00 0.36 0.02 90 1016.6
20260508014348 45 46 1.0 3.0 0.00 0.38 0.02 90 1016.6
20260508013849 45 46 0.0 3.0 0.00 0.38 0.02 90 1016.5
20260508013350 45 46 2.0 3.0 0.00 0.39 0.02 90 1016.5
20260508013132 45 46 2.0 3.0 0.00 0.39 0.02 90 1016.5
20260508012351 45 46 1.0 3.0 0.00 0.40 0.02 90 1016.5
20260508011851 45 46 1.0 3.0 0.00 0.40 0.02 90 1016.5
20260508011628 45 46 2.0 4.0 0.00 0.41 0.02 90 1016.5
20260508010850 45 43 2.0 5.0 0.00 0.41 0.02 90 1016.5
20260508010350 45 40 4.0 5.0 0.00 0.41 0.02 90 1016.4
20260508005936 45 9 3.0 5.0 0.00 0.41 0.02 90 1016.5
20260508005920 45 13 2.0 5.0 0.00 0.41 0.02 90 1016.5
20260508004849 45 51 1.0 7.0 0.00 0.41 0.02 90 1016.3
20260508004348 45 51 4.0 7.0 0.00 0.41 0.02 90 1016.4
20260508003848 45 53 2.0 4.0 0.00 0.41 0.02 90 1016.4
20260508003348 45 39 1.0 4.0 0.00 0.41 0.02 90 1016.4
20260508002849 45 29 1.0 4.0 0.00 0.41 0.02 90 1016.4
20260508002414 45 18 5.0 7.0 0.00 0.41 0.02 90 1016.4
20260508002403 45 44 4.0 7.0 0.00 0.41 0.02 90 1016.4
20260508001634 45 49 3.0 5.0 0.00 0.41 0.02 90 1016.5
20260508000848 45 54 2.0 5.0 0.00 0.41 0.02 90 1016.5
20260508000349 45 40 3.0 5.0 0.00 0.41 0.02 90 1016.4
20260508000129 45 40 4.0 6.0 0.00 0.41 0.02 90 1016.4
20260507235347 45 44 3.0 7.0 0.00 0.41 0.02 90 1016.5
20260507234848 46 41 4.0 7.0 0.00 0.41 0.02 90 1016.5
20260507234349 46 32 3.0 6.0 0.00 0.41 0.02 90 1016.5
20260507233846 46 41 4.0 6.0 0.01 0.41 0.02 90 1016.6
20260507233630 46 15 4.0 5.0 0.01 0.41 0.02 90 1016.7
20260507232846 46 10 2.0 3.0 0.01 0.41 0.02 90 1016.7
20260507232347 46 26 2.0 6.0 0.01 0.41 0.02 90 1016.7
20260507232124 46 26 4.0 6.0 0.01 0.41 0.02 90 1016.6
20260507231346 46 47 2.0 5.0 0.01 0.41 0.02 90 1016.6
20260507230845 46 56 3.0 5.0 0.01 0.41 0.02 90 1016.5
20260507230345 46 20 3.0 5.0 0.01 0.41 0.02 90 1016.6
20260507225847 46 16 2.0 3.0 0.02 0.39 0.02 90 1016.6
20260507225347 46 16 2.0 6.0 0.02 0.39 0.02 90 1016.7
20260507224846 46 16 3.0 6.0 0.02 0.39 0.02 90 1016.7
20260507224345 46 15 1.0 4.0 0.02 0.39 0.02 90 1016.7
20260507223847 46 27 3.0 4.0 0.01 0.39 0.01 90 1016.8
20260507223345 46 29 3.0 5.0 0.02 0.39 0.01 90 1016.8
20260507222845 46 29 3.0 5.0 0.02 0.39 0.01 90 1016.8
20260507222347 46 27 2.0 4.0 0.02 0.39 0.01 90 1016.7
20260507221847 46 26 2.0 5.0 0.02 0.39 0.01 90 1016.7
20260507221629 46 32 3.0 5.0 0.02 0.39 0.01 90 1016.7
20260507220847 46 27 2.0 5.0 0.02 0.39 0.01 90 1016.7
20260507220347 46 30 3.0 3.0 0.02 0.39 0.00 90 1016.7
20260507215847 46 32 1.0 4.0 0.01 0.39 0.39 90 1016.7
20260507215347 46 29 3.0 5.0 0.01 0.39 0.39 90 1016.6
20260507214846 46 22 3.0 5.0 0.01 0.39 0.39 90 1016.6
20260507214346 46 23 2.0 4.0 0.01 0.39 0.39 90 1016.6
20260507213847 46 23 2.0 4.0 0.01 0.39 0.39 90 1016.6
20260507213346 46 23 1.0 5.0 0.00 0.39 0.39 90 1016.5
20260507212846 46 23 4.0 5.0 0.00 0.39 0.39 90 1016.5
20260507212629 46 44 2.0 4.0 0.00 0.39 0.39 90 1016.5
20260507212127 46 8 3.0 4.0 0.00 0.39 0.39 90 1016.4
20260507211345 46 26 3.0 5.0 0.00 0.39 0.39 90 1016.4
20260507210847 46 26 2.0 5.0 0.00 0.39 0.39 90 1016.4
20260507210347 46 37 2.0 4.0 0.00 0.39 0.39 90 1016.3
20260507205847 46 39 3.0 5.0 0.00 0.39 0.39 90 1016.2
20260507205346 46 60 4.0 5.0 0.00 0.39 0.39 90 1016.2
20260507204844 46 50 1.0 6.0 0.00 0.39 0.39 90 1016.2
20260507204633 46 50 4.0 6.0 0.00 0.39 0.39 90 1016.1
20260507204126 46 16 3.0 6.0 0.00 0.39 0.39 90 1016.0
20260507203629 46 33 4.0 6.0 0.00 0.39 0.39 90 1016.1
20260507202843 46 53 6.0 7.0 0.00 0.39 0.39 90 1015.9
20260507202630 46 27 4.0 7.0 0.00 0.39 0.39 90 1015.9
20260507202129 46 30 5.0 6.0 0.00 0.39 0.39 90 1015.8
20260507201345 46 37 4.0 6.0 0.00 0.39 0.39 90 1015.7
20260507200845 46 8 5.0 6.0 0.00 0.39 0.39 90 1015.7
20260507200622 46 51 3.0 5.0 0.00 0.39 0.39 90 1015.7
20260507195845 46 25 3.0 5.0 0.00 0.39 0.39 90 1015.5
20260507195342 46 25 4.0 6.0 0.00 0.39 0.39 90 1015.6
20260507194844 46 43 2.0 6.0 0.00 0.39 0.39 90 1015.5
20260507194342 46 32 5.0 6.0 0.00 0.39 0.39 90 1015.5
20260507193844 46 47 3.0 5.0 0.00 0.39 0.39 90 1015.5
20260507193342 46 50 1.0 6.0 0.00 0.39 0.39 90 1015.5
20260507192844 46 32 4.0 6.0 0.00 0.39 0.39 90 1015.4
20260507192715 46 51 4.0 6.0 0.00 0.39 0.39 90 1015.4
20260507192407 46 41 3.0 6.0 0.00 0.39 0.39 90 1015.5
20260507191343 46 23 5.0 6.0 0.00 0.39 0.39 89 1015.4
20260507191219 46 44 4.0 7.0 0.00 0.39 0.39 89 1015.3
20260507191212 46 50 3.0 7.0 0.00 0.39 0.39 89 1015.4
20260507190129 46 50 4.0 7.0 0.00 0.39 0.39 89 1015.2
20260507185342 46 41 4.0 7.0 0.00 0.39 0.39 89 1015.1
20260507184843 46 34 4.0 7.0 0.00 0.39 0.39 89 1015.2
20260507184343 46 39 4.0 7.0 0.00 0.39 0.39 89 1015.2
20260507183843 46 37 4.0 9.0 0.00 0.39 0.39 89 1015.1
20260507183343 46 33 5.0 9.0 0.00 0.39 0.39 89 1015.0
20260507182845 46 25 7.0 9.0 0.00 0.39 0.39 89 1014.9
20260507182342 46 18 5.0 10.0 0.00 0.39 0.39 89 1014.9
20260507181841 46 50 4.0 11.0 0.00 0.39 0.39 89 1014.8
20260507181341 46 32 7.0 11.0 0.00 0.39 0.39 89 1014.7
20260507180843 46 43 6.0 10.0 0.00 0.39 0.39 89 1014.7
20260507180343 46 30 3.0 10.0 0.00 0.39 0.39 89 1014.7
20260507175842 47 9 6.0 9.0 0.00 0.39 0.39 89 1014.7
20260507175336 47 39 6.0 9.0 0.00 0.39 0.39 89 1014.5
20260507174832 47 41 5.0 7.0 0.00 0.39 0.39 89 1014.5
20260507174333 47 27 3.0 10.0 0.00 0.39 0.39 89 1014.4
20260507173832 47 20 5.0 10.0 0.00 0.39 0.39 89 1014.4
20260507173331 47 6 4.0 9.0 0.00 0.39 0.39 89 1014.3
20260507173054 47 29 6.0 11.0 0.00 0.39 0.39 89 1014.4
20260507172307 47 3 6.0 11.0 0.00 0.39 0.39 89 1014.2
20260507172049 47 32 4.0 9.0 0.00 0.39 0.39 89 1014.2
20260507171302 47 356 4.0 7.0 0.00 0.39 0.39 89 1014.2
20260507170804 47 33 3.0 7.0 0.00 0.39 0.39 89 1014.0
20260507170303 47 20 5.0 12.0 0.00 0.39 0.39 89 1014.1
20260507165802 47 20 6.0 12.0 0.00 0.39 0.39 89 1013.9
20260507165306 47 9 5.0 10.0 0.01 0.39 0.39 89 1014.0
20260507164803 47 37 6.0 9.0 0.01 0.39 0.39 89 1013.9
20260507164304 47 5 8.0 9.0 0.01 0.39 0.39 89 1013.8
20260507163803 47 34 3.0 12.0 0.01 0.39 0.39 89 1013.8
20260507163304 48 9 7.0 12.0 0.01 0.39 0.39 89 1013.7
20260507162804 48 51 6.0 10.0 0.01 0.39 0.39 89 1013.8
20260507162307 48 30 2.0 6.0 0.01 0.39 0.39 89 1013.8
20260507161803 48 30 4.0 7.0 0.02 0.39 0.39 89 1013.8
20260507161303 48 54 3.0 7.0 0.02 0.39 0.39 89 1013.8
20260507160804 48 39 3.0 7.0 0.02 0.39 0.39 89 1013.8
20260507160304 48 44 6.0 7.0 0.03 0.39 0.39 89 1013.7
20260507155803 48 30 4.0 9.0 0.04 0.35 0.39 89 1013.8
20260507155306 48 29 6.0 9.0 0.03 0.35 0.38 89 1013.7
20260507154803 48 16 5.0 9.0 0.03 0.35 0.38 89 1013.7
20260507154354 48 33 5.0 11.0 0.04 0.35 0.38 89 1013.6
20260507154341 48 27 4.0 11.0 0.04 0.35 0.38 89 1013.6
20260507153304 48 32 6.0 9.0 0.04 0.35 0.38 89 1013.5
20260507152902 48 50 3.0 9.0 0.04 0.35 0.38 89 1013.6
20260507152840 48 57 6.0 7.0 0.04 0.35 0.38 89 1013.6
20260507151806 48 34 5.0 11.0 0.03 0.35 0.37 88 1013.6
20260507151304 48 32 8.0 11.0 0.03 0.35 0.37 88 1013.5
20260507150805 48 26 7.0 9.0 0.02 0.35 0.36 88 1013.5
20260507150304 48 12 4.0 7.0 0.02 0.35 0.35 88 1013.5
20260507145804 48 19 3.0 5.0 0.01 0.34 0.35 88 1013.4
20260507145306 48 19 3.0 5.0 0.01 0.34 0.35 88 1013.4
20260507144803 48 33 3.0 6.0 0.01 0.34 0.35 88 1013.5
20260507144304 48 23 4.0 11.0 0.00 0.34 0.34 88 1013.5
20260507143803 48 29 4.0 11.0 0.00 0.34 0.34 88 1013.5
20260507143303 48 46 6.0 7.0 0.00 0.34 0.34 88 1013.5
20260507142803 48 49 4.0 5.0 0.00 0.34 0.34 88 1013.5
20260507142306 48 80 1.0 5.0 0.00 0.34 0.34 88 1013.5
20260507142051 48 75 3.0 5.0 0.00 0.34 0.34 88 1013.3
20260507141551 48 46 2.0 5.0 0.00 0.34 0.34 88 1013.3
20260507140804 48 84 4.0 6.0 0.00 0.34 0.34 88 1013.4
20260507140303 48 96 4.0 6.0 0.00 0.34 0.34 88 1013.4
20260507135804 48 65 2.0 6.0 0.00 0.34 0.34 88 1013.3
20260507135713 48 54 3.0 7.0 0.00 0.34 0.34 88 1013.2
20260507135409 48 53 5.0 9.0 0.00 0.34 0.34 88 1013.1
20260507135350 48 51 3.0 5.0 0.00 0.34 0.34 88 1013.2
20260507133802 48 64 5.0 9.0 0.00 0.34 0.34 88 1013.1
20260507133553 48 54 6.0 9.0 0.00 0.34 0.34 88 1013.0
20260507132804 48 64 2.0 7.0 0.00 0.34 0.34 88 1013.1
20260507132601 48 81 4.0 7.0 0.00 0.34 0.34 88 1013.0
20260507131805 48 65 4.0 7.0 0.00 0.34 0.34 88 1013.1
20260507131302 48 27 5.0 7.0 0.00 0.34 0.34 88 1013.1
20260507130805 48 30 3.0 7.0 0.00 0.34 0.34 88 1013.0
20260507130302 48 49 4.0 9.0 0.00 0.34 0.34 88 1012.9
20260507125802 48 30 4.0 11.0 0.00 0.34 0.34 88 1012.8
20260507125306 48 57 8.0 11.0 0.00 0.34 0.34 88 1012.8
20260507124803 48 32 6.0 11.0 0.00 0.34 0.34 89 1012.7
20260507124304 48 32 4.0 7.0 0.00 0.34 0.34 89 1012.8
20260507123804 48 44 5.0 7.0 0.00 0.34 0.34 89 1012.6
20260507123302 48 33 5.0 7.0 0.00 0.34 0.34 89 1012.5
20260507122804 48 49 5.0 9.0 0.00 0.34 0.34 89 1012.5
20260507122307 48 29 6.0 11.0 0.00 0.34 0.34 89 1012.6
20260507121803 48 68 6.0 11.0 0.00 0.34 0.34 89 1012.5
20260507121302 49 67 7.0 10.0 0.00 0.34 0.34 89 1012.4
20260507120803 49 61 4.0 7.0 0.00 0.34 0.34 89 1012.3
20260507120619 49 57 5.0 10.0 0.00 0.34 0.34 90 1012.3
20260507120323 48 47 4.0 9.0 0.00 0.34 0.34 89 1012.3
20260507115255 48 30 4.0 10.0 0.00 0.34 0.34 90 1012.3
20260507114740 48 18 4.0 9.0 0.00 0.34 0.34 90 1012.3
20260507114236 48 44 4.0 12.0 0.01 0.34 0.34 89 1012.2
20260507113738 48 27 6.0 12.0 0.01 0.34 0.34 89 1012.2
20260507113234 48 67 5.0 11.0 0.01 0.34 0.34 89 1012.3
20260507112733 48 44 6.0 7.0 0.02 0.34 0.34 90 1012.3
20260507112233 48 78 4.0 7.0 0.02 0.34 0.34 90 1012.2
20260507111735 48 30 5.0 7.0 0.02 0.34 0.34 90 1012.2
20260507111233 48 58 4.0 7.0 0.02 0.34 0.34 90 1012.2
20260507110735 48 46 2.0 9.0 0.02 0.34 0.34 90 1012.2
20260507110231 48 36 4.0 9.0 0.02 0.34 0.34 90 1012.0
20260507105733 48 34 6.0 9.0 0.02 0.31 0.34 90 1012.1
20260507105233 48 37 4.0 10.0 0.02 0.31 0.34 90 1012.0
20260507105020 47 46 6.0 10.0 0.02 0.31 0.33 90 1012.0
20260507104233 47 29 2.0 9.0 0.02 0.31 0.33 90 1011.9
20260507103732 47 39 6.0 9.0 0.02 0.31 0.33 90 1012.1
20260507103516 47 44 6.0 9.0 0.02 0.31 0.33 90 1012.0
20260507102733 47 34 3.0 7.0 0.01 0.31 0.32 90 1012.0
20260507102232 47 5 4.0 6.0 0.01 0.31 0.32 90 1012.0
20260507101734 47 2 3.0 6.0 0.01 0.31 0.32 90 1012.0
20260507101232 47 32 4.0 6.0 0.01 0.31 0.32 90 1012.0
20260507100733 47 12 4.0 6.0 0.00 0.31 0.31 90 1011.9
20260507100232 47 26 3.0 4.0 0.00 0.31 0.31 90 1011.8
20260507095734 47 22 2.0 5.0 0.00 0.31 0.31 90 1011.9
20260507095231 47 32 3.0 5.0 0.00 0.31 0.31 90 1011.9
20260507094733 47 51 2.0 5.0 0.00 0.31 0.31 90 1011.8
20260507094232 47 47 2.0 4.0 0.00 0.31 0.31 90 1011.7
20260507093732 47 12 3.0 7.0 0.00 0.31 0.31 90 1011.7
20260507093231 47 53 4.0 7.0 0.00 0.31 0.31 90 1011.5
20260507092733 47 85 3.0 6.0 0.00 0.31 0.31 90 1011.5
20260507092256 47 43 5.0 7.0 0.00 0.31 0.31 90 1011.4
20260507092245 47 87 4.0 7.0 0.00 0.31 0.31 90 1011.4
20260507091519 47 36 4.0 7.0 0.00 0.31 0.31 90 1011.3
20260507090732 47 57 5.0 7.0 0.00 0.31 0.31 90 1011.3
20260507090510 47 22 5.0 7.0 0.00 0.31 0.31 90 1011.1
20260507085732 47 37 4.0 9.0 0.00 0.31 0.29 90 1011.1
20260507085231 47 37 5.0 9.0 0.00 0.31 0.29 90 1011.1
20260507084731 47 33 2.0 7.0 0.01 0.31 0.29 90 1011.1
20260507084230 47 58 5.0 6.0 0.01 0.31 0.29 90 1010.9
20260507083732 46 34 3.0 6.0 0.01 0.31 0.29 90 1010.8
20260507083513 46 12 4.0 6.0 0.01 0.31 0.29 90 1010.9
20260507082731 46 63 4.0 6.0 0.01 0.31 0.29 90 1010.9
20260507082230 46 56 2.0 7.0 0.01 0.31 0.29 90 1010.8
20260507081732 47 63 4.0 7.0 0.02 0.31 0.29 90 1010.8
20260507081230 46 26 5.0 7.0 0.02 0.31 0.29 90 1010.7